Lewiston, WA

4:27 AM PDT on May 25, 2018 (GMT -0700)
Lewiston-Nez Perce County

Weather History for KLWS - March, 2012

Change the Weather History Date:

Friday, March 2, 2012

  Actual Average Record
Temperature  
Mean Temperature 38 °F 42 °F  
Max Temperature 46 °F 51 °F 70 °F (1905)
Min Temperature 29 °F 33 °F 13 °F (1896)
Degree Days  
Heating Degree Days 27 23  
Month to date heating degree days 54 47  
Since 1 July heating degree days 3726 3902  
Cooling Degree Days 0 0  
Month to date cooling degree days 0 0  
Year to date cooling degree days 0 0  
Moisture  
Dew Point 27 °F    
Average Humidity 58    
Maximum Humidity 78    
Minimum Humidity 37    
Precipitation  
Precipitation T in 0.04 in 0.72 in (1972)
Month to date precipitation 0.02 0.07  
Year to date precipitation 2.62 1.93  
Snow  
Snow T in 0.00 in 3.70 in (1989)
Month to date snowfall T 0.1  
Since 1 July snowfall 13.5 9.9  
Snow Depth 0.00 in    
Sea Level Pressure  
Sea Level Pressure 30.33 in    
Wind  
Wind Speed 5 mph (South)    
Max Wind Speed 15 mph    
Max Gust Speed 20 mph    
Visibility 10 miles    
Events      
T = Trace of Precipitation, MM = Missing Value Source: NWS Daily Summary

Daily Weather History Graph

Daily Weather History Graph

Search for Another Location

Airport or City:

Astronomy

Mar. 02, 2012 Rise Set
Actual Time 6:24 AM PST 5:36 PM PST
Civil Twilight 5:54 AM PST 6:06 PM PST
Nautical Twilight 5:19 AM PST 6:41 PM PST
Astronomical Twilight 4:44 AM PST 7:16 PM PST
Moon 11:37 AM PST (3/2) 2:34 AM PST (3/2)
Length of Visible Light 12h 12m
Length of Day
11h 12m
Waxing Gibbous, 67% of the Moon is Illuminated
Mar 2
Waxing Gibbous
Mar 8
Full
Mar 14
Last Quarter
Mar 22
New
Mar 30
First Quarter

Hourly Weather History & Observations

Time (PST) Temp. Windchill Dew Point Humidity Pressure Visibility Wind Dir Wind Speed Gust Speed Precip Events Conditions
12:56 AM 34.0 °F 27.2 °F 27.0 °F 75% 30.27 in 10.0 mi WSW 8.1 mph - N/A   Overcast
1:56 AM 35.1 °F 29.3 °F 28.0 °F 76% 30.29 in 10.0 mi SSW 6.9 mph - N/A   Overcast
2:56 AM 33.1 °F - 25.0 °F 72% 30.30 in 10.0 mi Calm Calm - N/A   Clear
3:56 AM 34.0 °F - 23.0 °F 64% 30.31 in 10.0 mi Calm Calm - N/A   Clear
4:56 AM 32.0 °F 28.7 °F 23.0 °F 69% 30.33 in 10.0 mi SSE 3.5 mph - N/A   Mostly Cloudy
5:56 AM 32.0 °F - 25.0 °F 75% 30.35 in 10.0 mi Calm Calm - N/A   Overcast
6:56 AM 30.9 °F - 25.0 °F 79% 30.37 in 10.0 mi Calm Calm - N/A   Clear
7:56 AM 34.0 °F 29.8 °F 26.1 °F 73% 30.37 in 10.0 mi NE 4.6 mph - N/A   Mostly Cloudy
8:56 AM 37.9 °F 35.5 °F 28.0 °F 68% 30.37 in 10.0 mi NNW 3.5 mph - N/A   Mostly Cloudy
9:56 AM 39.9 °F - 30.0 °F 68% 30.37 in 10.0 mi Calm Calm - N/A   Overcast
10:56 AM 42.1 °F 37.7 °F 30.0 °F 62% 30.36 in 10.0 mi North 6.9 mph - N/A   Overcast
11:56 AM 44.1 °F 42.5 °F 26.1 °F 49% 30.36 in 10.0 mi Variable 3.5 mph - N/A   Overcast
12:56 PM 45.0 °F - 24.1 °F 44% 30.34 in 10.0 mi Calm Calm - N/A   Overcast
1:56 PM 46.0 °F 40.6 °F 21.9 °F 39% 30.33 in 10.0 mi West 11.5 mph - N/A   Overcast
2:56 PM 45.0 °F 39.7 °F 25.0 °F 46% 30.34 in 10.0 mi SW 10.4 mph - N/A   Overcast
3:56 PM 45.0 °F 38.5 °F 26.1 °F 48% 30.32 in 10.0 mi South 13.8 mph - N/A   Overcast
4:56 PM 44.1 °F 37.7 °F 27.0 °F 51% 30.32 in 10.0 mi South 12.7 mph - N/A   Overcast
5:56 PM 43.0 °F 39.5 °F 28.0 °F 56% 30.32 in 10.0 mi South 5.8 mph - N/A   Overcast
6:56 PM 43.0 °F 40.3 °F 28.9 °F 58% 30.32 in 10.0 mi South 4.6 mph - N/A   Overcast
7:56 PM 42.1 °F 39.2 °F 28.9 °F 60% 30.30 in 10.0 mi South 4.6 mph - N/A   Partly Cloudy
8:56 PM 42.1 °F 40.2 °F 28.9 °F 60% 30.31 in 10.0 mi South 3.5 mph - N/A   Overcast
9:56 PM 42.1 °F - 30.0 °F 62% 30.31 in 10.0 mi Calm Calm - N/A   Overcast
10:56 PM 43.0 °F 41.3 °F 30.9 °F 62% 30.31 in 10.0 mi ESE 3.5 mph - 0.00 in   Overcast
11:56 PM 43.0 °F 41.3 °F 30.9 °F 62% 30.30 in 10.0 mi SE 3.5 mph - N/A   Overcast